Miscellaneous Local Product
Issued by NWS North Platte, NE

Home | Current Version | Previous Version | Graphics & Text | Print | Product List | Glossary On
Versions: 1 2 3 4 5 6 7 8 9 10 11 12 13 14 15 16 17 18 19 20 21 22 23 24 25 26 27 28 29 30 31 32 33 34 35 36 37 38 39 40 41 42 43 44 45 46 47 48 49 50
000
AXUS43 KLBF 231210
MISLBF


WESTERN AND NORTH CENTRAL NEBRASKA HOURLY WEATHER ROUNDUP
NATIONAL WEATHER SERVICE NORTH PLATTE NE
700 AM CDT TUE AUG 23 2016

NOTE: "FAIR" INDICATES FEW OR NO CLOUDS BELOW 12,000 FEET WITH NO
SIGNIFICANT WEATHER AND/OR OBSTRUCTIONS TO VISIBILITY.

NOTE: STATIONS NOT REPORTING VARIABLES SUCH AS SKY/WEATHER OR
PRESSURE ARE PROVIDED BY RAWS AND APRS NETWORKS AND ARE NOT UNDER
NATIONAL WEATHER SERVICE QUALITY CONTROL.

...OBSERVATIONS IN AND NEAR THE EASTERN PANHANDLE OF NEBRASKA...

CITY           SKY/WX    TMP DP  RH WIND       PRES   REMARKS
PINE RIDGE     CLEAR     64  58  80 S16       29.76S
CHADRON        CLEAR     58  47  66 SW8       29.79R
ALLIANCE       CLEAR     57  55  93 S7        29.84R
SIDNEY         CLEAR     52  50  93 W9        29.91R
CRESCENT LAKE    N/A     60  58  94 CALM        N/A
$$

...OBSERVATIONS IN NORTHERN NEBRASKA AND FAR SOUTHERN SOUTH DAKOTA...

CITY           SKY/WX    TMP DP  RH WIND       PRES   REMARKS
WINNER         FAIR      71  58  63 S21       29.74R
VALENTINE      CLEAR     66  58  75 S8        29.80R
THEDFORD       PTCLDY    66  60  82 S7        29.85R
AINSWORTH      CLEAR     64  59  82 S14       29.82R
O`NEILL        CLOUDY    68  58  71 S7        29.84S
ORD            LGT RAIN  65  61  87 SE5       29.84F
BROKEN BOW     CLOUDY    65  62  90 S6        29.84F
VALENTINE NWR    N/A     62  57  83 S7          N/A
BUTTE            N/A     69  60  72 SW13G20     N/A
HALSEY           N/A     67  59  74 SE9G16      N/A
EWING            N/A     66  60  82 S3G12       N/A
$$

...OBSERVATIONS IN SOUTHWEST NEBRASKA AND FAR NORTHEAST COLORADO...

CITY           SKY/WX    TMP DP  RH WIND       PRES   REMARKS
WRAY           FAIR     N/A N/A N/A W7        29.85S
HOLYOKE        FAIR      59  55  88 W3        29.86S
IMPERIAL       CLEAR     63  60  90 SE8       29.84R
OGALLALA       CLEAR     64  59  83 CALM      29.85R
NORTH PLATTE   PTCLDY    62  60  93 E7        29.84S
MCCOOK         CLEAR     65  62  90 E10       29.84R
LEXINGTON      CLOUDY    66  63  90 SE8       29.85S
STAPLETON        N/A     62  59  91 CALM        N/A
GOTHENBURG       N/A     64  59  83 E3          N/A
CALLAWAY         N/A     62  60  93 SE5         N/A
$$

...OBSERVATIONS IN CENTRAL LINCOLN COUNTY AREA...

CITY           SKY/WX    TMP DP  RH WIND       PRES   REMARKS
N.P. AIRPORT   PTCLDY    62  60  93 E7        29.84S
N.P. DOWNTOWN    N/A     66  62  86 CALM        N/A
N.P. SOUTHEAST   N/A     64  60  87 CALM        N/A
N.P. HILLCREST   N/A     62  60  92 E7          N/A
$$

...SOME OBSERVATIONS FROM AROUND THE REGION...

CITY           SKY/WX    TMP DP  RH WIND       PRES   REMARKS
DENVER         PTCLDY    62  39  42 SW12      29.99R
LARAMIE        CLOUDY    50  37  61 S12       30.14R
CHEYENNE       CLEAR     64  35  34 W17G28    30.01S
SCOTTSBLUFF    CLEAR     54  53  97 W3        29.86R FOG
RAPID CITY     CLEAR     63  44  50 N18       29.72R
BISMARCK       CLEAR     55  55 100 CALM      29.62R
PIERRE         CLEAR     72  59  63 S13       29.65R
SIOUX FALLS    CLOUDY    68  62  81 S10       29.87R
OMAHA          MOCLDY    69  62  78 S17       29.96R
GRAND ISLAND   LGT RAIN  67  62  84 S8        29.89S
KANSAS CITY    CLOUDY    69  64  84 S9        30.05R
WICHITA        CLOUDY    74  71  91 S16       29.98R
OKLAHOMA CITY  CLOUDY    77  73  87 S15G23    30.03S
DALLAS         MOCLDY    79  73  82 S15G22    30.09R
AMARILLO       CLOUDY    67  65  93 SW17G26   30.05S
DODGE CITY     PTCLDY    70  66  87 S15       29.93S
HAYS           PTCLDY    72  61  68 S21       29.88R
GOODLAND       CLEAR     62  55  77 S7        29.85R
$$




USA.gov is the U.S. government's official web portal to all federal, state and local government web resources and services.